Time,TemperatureF,DewpointF,PressureIn,WindDirection,WindDirectionDegrees,WindSpeedMPH,WindSpeedGustMPH,Humidity,HourlyPrecipIn,Conditions,Clouds,dailyrainin,SolarRadiationWatts/m^2,SoftwareType,DateUTC
2013-09-13 00:00:00,59.0,43.8,29.73,South,185,0.0,0.0,57,0.00,,,0.00,0,Wunderground v.1.15,2013-09-13 06:00:00,
2013-09-13 00:05:00,58.9,43.7,29.72,South,185,1.0,2.0,57,0.00,,,0.00,0,Wunderground v.1.15,2013-09-13 06:05:00,
2013-09-13 00:10:00,58.6,43.4,29.72,South,185,1.0,2.0,57,0.00,,,0.00,0,Wunderground v.1.15,2013-09-13 06:10:00,
2013-09-13 00:15:00,58.4,43.2,29.72,South,185,1.0,2.0,57,0.00,,,0.00,0,Wunderground v.1.15,2013-09-13 06:15:00,
2013-09-13 00:20:00,58.3,43.6,29.72,South,185,1.0,2.0,58,0.00,,,0.00,0,Wunderground v.1.15,2013-09-13 06:20:00,
2013-09-13 00:25:00,58.2,43.5,29.72,South,185,1.0,2.0,58,0.00,,,0.00,0,Wunderground v.1.15,2013-09-13 06:25:00,
2013-09-13 00:30:00,58.1,43.8,29.72,South,185,1.0,1.0,59,0.00,,,0.00,0,Wunderground v.1.15,2013-09-13 06:30:00,
2013-09-13 00:35:00,57.8,44.0,29.72,South,185,1.0,2.0,60,0.00,,,0.00,0,Wunderground v.1.15,2013-09-13 06:35:00,
2013-09-13 00:40:00,57.9,43.7,29.71,South,185,2.0,2.0,59,0.00,,,0.00,0,Wunderground v.1.15,2013-09-13 06:40:00,
2013-09-13 00:45:00,58.0,43.3,29.71,SSW,200,2.0,2.0,58,0.00,,,0.00,0,Wunderground v.1.15,2013-09-13 06:45:00,
2013-09-13 00:50:00,57.9,42.8,29.71,SSW,201,2.0,2.0,57,0.00,,,0.00,0,Wunderground v.1.15,2013-09-13 06:50:00,
2013-09-13 01:00:00,57.9,43.2,29.71,SSW,201,2.0,2.0,58,0.00,,,0.00,0,Wunderground v.1.15,2013-09-13 07:00:00,
2013-09-13 01:10:00,58.1,43.4,29.71,SSW,201,1.0,1.0,58,0.00,,,0.00,0,Wunderground v.1.15,2013-09-13 07:10:00,
2013-09-13 01:15:00,58.1,43.4,29.71,SSW,201,1.0,1.0,58,0.00,,,0.00,0,Wunderground v.1.15,2013-09-13 07:15:00,
2013-09-13 01:20:00,58.0,43.3,29.71,SSW,201,0.0,0.0,58,0.00,,,0.00,0,Wunderground v.1.15,2013-09-13 07:20:00,
2013-09-13 01:25:00,57.9,43.2,29.70,SSW,201,0.0,3.0,58,0.00,,,0.00,0,Wunderground v.1.15,2013-09-13 07:25:00,
2013-09-13 01:35:00,57.6,42.9,29.70,SSW,201,2.0,2.0,58,0.00,,,0.00,0,Wunderground v.1.15,2013-09-13 07:35:00,
2013-09-13 01:40:00,57.6,42.9,29.70,SSW,201,0.0,0.0,58,0.00,,,0.00,0,Wunderground v.1.15,2013-09-13 07:40:00,
2013-09-13 01:50:00,57.4,44.1,29.70,SSW,201,1.0,1.0,61,0.00,,,0.00,0,Wunderground v.1.15,2013-09-13 07:50:00,
2013-09-13 02:00:00,57.1,43.3,29.70,SSW,201,0.0,1.0,60,0.00,,,0.00,0,Wunderground v.1.15,2013-09-13 08:00:00,
2013-09-13 02:05:00,56.6,43.3,29.71,SSW,201,1.0,3.0,61,0.00,,,0.00,0,Wunderground v.1.15,2013-09-13 08:05:00,
2013-09-13 02:15:00,56.0,43.2,29.70,SSW,201,1.0,2.0,62,0.00,,,0.00,0,Wunderground v.1.15,2013-09-13 08:15:00,
2013-09-13 02:20:00,55.9,43.1,29.70,SSW,201,0.0,0.0,62,0.00,,,0.00,0,Wunderground v.1.15,2013-09-13 08:20:00,
2013-09-13 02:25:00,55.7,43.3,29.70,SSW,201,0.0,0.0,63,0.00,,,0.00,0,Wunderground v.1.15,2013-09-13 08:25:00,
2013-09-13 02:30:00,55.6,43.2,29.70,SSW,201,1.0,1.0,63,0.00,,,0.00,0,Wunderground v.1.15,2013-09-13 08:30:00,
2013-09-13 02:40:00,55.3,43.3,29.70,SSW,201,1.0,1.0,64,0.00,,,0.00,0,Wunderground v.1.15,2013-09-13 08:40:00,
2013-09-13 02:45:00,55.2,42.8,29.70,SSW,201,1.0,2.0,63,0.00,,,0.00,0,Wunderground v.1.15,2013-09-13 08:45:00,
2013-09-13 02:50:00,55.2,43.2,29.70,SSW,201,1.0,1.0,64,0.00,,,0.00,0,Wunderground v.1.15,2013-09-13 08:50:00,
2013-09-13 02:55:00,55.1,42.7,29.69,SSW,201,0.0,1.0,63,0.00,,,0.00,0,Wunderground v.1.15,2013-09-13 08:55:00,
2013-09-13 03:00:00,55.2,42.8,29.69,SSW,201,0.0,0.0,63,0.00,,,0.00,0,Wunderground v.1.15,2013-09-13 09:00:00,
2013-09-13 03:10:00,55.2,42.8,29.69,SSW,201,1.0,1.0,63,0.00,,,0.00,0,Wunderground v.1.15,2013-09-13 09:10:00,
2013-09-13 03:15:00,55.2,43.2,29.69,SSW,201,0.0,1.0,64,0.00,,,0.00,0,Wunderground v.1.15,2013-09-13 09:15:00,
2013-09-13 03:25:00,55.3,43.3,29.68,SSW,201,0.0,1.0,64,0.00,,,0.00,0,Wunderground v.1.15,2013-09-13 09:25:00,
2013-09-13 03:30:00,55.2,43.2,29.68,SSW,201,0.0,0.0,64,0.00,,,0.00,0,Wunderground v.1.15,2013-09-13 09:30:00,
2013-09-13 03:40:00,55.0,43.0,29.68,SSW,201,0.0,0.0,64,0.00,,,0.00,0,Wunderground v.1.15,2013-09-13 09:40:00,
2013-09-13 03:45:00,55.0,43.0,29.69,SSW,201,0.0,2.0,64,0.00,,,0.00,0,Wunderground v.1.15,2013-09-13 09:45:00,
2013-09-13 03:50:00,54.9,42.9,29.69,SSW,201,0.0,0.0,64,0.00,,,0.00,0,Wunderground v.1.15,2013-09-13 09:50:00,
2013-09-13 03:55:00,55.0,43.4,29.68,SSW,201,0.0,0.0,65,0.00,,,0.00,0,Wunderground v.1.15,2013-09-13 09:55:00,
2013-09-13 04:00:00,55.0,43.0,29.68,SSW,201,0.0,0.0,64,0.00,,,0.00,0,Wunderground v.1.15,2013-09-13 10:00:00,
2013-09-13 04:10:00,55.1,43.1,29.68,SSW,201,1.0,1.0,64,0.00,,,0.00,0,Wunderground v.1.15,2013-09-13 10:10:00,
2013-09-13 04:15:00,55.1,43.1,29.68,SSW,201,1.0,1.0,64,0.00,,,0.00,0,Wunderground v.1.15,2013-09-13 10:15:00,
2013-09-13 04:20:00,55.1,43.1,29.68,SSW,201,1.0,1.0,64,0.00,,,0.00,0,Wunderground v.1.15,2013-09-13 10:20:00,
2013-09-13 04:25:00,55.1,43.1,29.68,SSW,201,0.0,1.0,64,0.00,,,0.00,0,Wunderground v.1.15,2013-09-13 10:25:00,
2013-09-13 04:30:00,55.2,43.2,29.68,SSW,201,0.0,0.0,64,0.00,,,0.00,0,Wunderground v.1.15,2013-09-13 10:30:00,
2013-09-13 04:35:00,55.2,43.2,29.67,SSW,201,0.0,0.0,64,0.00,,,0.00,0,Wunderground v.1.15,2013-09-13 10:35:00,
2013-09-13 04:40:00,55.2,43.2,29.68,SSW,201,0.0,0.0,64,0.00,,,0.00,0,Wunderground v.1.15,2013-09-13 10:40:00,
2013-09-13 04:45:00,55.4,43.0,29.67,SSW,201,0.0,0.0,63,0.00,,,0.00,0,Wunderground v.1.15,2013-09-13 10:45:00,
2013-09-13 04:50:00,55.5,43.1,29.67,SSW,201,0.0,2.0,63,0.00,,,0.00,0,Wunderground v.1.15,2013-09-13 10:50:00,
2013-09-13 04:55:00,55.7,43.3,29.67,SSW,201,1.0,2.0,63,0.00,,,0.00,0,Wunderground v.1.15,2013-09-13 10:55:00,
2013-09-13 05:00:00,55.9,43.5,29.67,SSW,201,1.0,1.0,63,0.00,,,0.00,0,Wunderground v.1.15,2013-09-13 11:00:00,
2013-09-13 05:05:00,56.2,43.3,29.67,SSW,201,1.0,2.0,62,0.00,,,0.00,0,Wunderground v.1.15,2013-09-13 11:05:00,
2013-09-13 05:15:00,56.5,43.6,29.67,SSW,201,0.0,1.0,62,0.00,,,0.00,0,Wunderground v.1.15,2013-09-13 11:15:00,
2013-09-13 05:20:00,56.5,43.6,29.66,SSW,201,0.0,2.0,62,0.00,,,0.00,0,Wunderground v.1.15,2013-09-13 11:20:00,
2013-09-13 05:25:00,56.5,43.6,29.66,SSW,201,0.0,2.0,62,0.00,,,0.00,0,Wunderground v.1.15,2013-09-13 11:25:00,
2013-09-13 05:35:00,56.3,43.4,29.66,SSW,201,0.0,0.0,62,0.00,,,0.00,0,Wunderground v.1.15,2013-09-13 11:35:00,
2013-09-13 05:40:00,56.2,43.3,29.66,SSW,201,0.0,0.0,62,0.00,,,0.00,0,Wunderground v.1.15,2013-09-13 11:40:00,
2013-09-13 05:45:00,56.0,43.2,29.66,SSW,201,0.0,0.0,62,0.00,,,0.00,0,Wunderground v.1.15,2013-09-13 11:45:00,
2013-09-13 05:50:00,55.8,43.4,29.66,SSW,201,1.0,1.0,63,0.00,,,0.00,0,Wunderground v.1.15,2013-09-13 11:50:00,
2013-09-13 06:00:00,55.3,42.9,29.66,SSW,201,0.0,3.0,63,0.00,,,0.00,0,Wunderground v.1.15,2013-09-13 12:00:00,
2013-09-13 06:10:00,54.8,42.9,29.66,SSW,201,2.0,2.0,64,0.00,,,0.00,0,Wunderground v.1.15,2013-09-13 12:10:00,
2013-09-13 06:15:00,54.8,42.9,29.66,SSW,201,1.0,2.0,64,0.00,,,0.00,0,Wunderground v.1.15,2013-09-13 12:15:00,
2013-09-13 06:25:00,54.9,42.9,29.65,SSW,201,1.0,3.0,64,0.00,,,0.00,0,Wunderground v.1.15,2013-09-13 12:25:00,
2013-09-13 06:30:00,55.0,43.0,29.65,SSW,201,2.0,2.0,64,0.00,,,0.00,0,Wunderground v.1.15,2013-09-13 12:30:00,
2013-09-13 06:35:00,54.8,42.9,29.65,SSW,201,1.0,2.0,64,0.00,,,0.00,0,Wunderground v.1.15,2013-09-13 12:35:00,
2013-09-13 06:45:00,54.4,42.9,29.65,SW,236,1.0,1.0,65,0.00,,,0.00,0,Wunderground v.1.15,2013-09-13 12:45:00,
2013-09-13 06:55:00,54.1,42.6,29.65,WSW,237,1.0,2.0,65,0.00,,,0.00,0,Wunderground v.1.15,2013-09-13 12:55:00,
2013-09-13 07:05:00,54.1,43.0,29.65,WSW,237,2.0,2.0,66,0.00,,,0.00,5,Wunderground v.1.15,2013-09-13 13:05:00,
2013-09-13 07:10:00,54.2,42.7,29.65,WSW,237,1.0,1.0,65,0.00,,,0.00,9,Wunderground v.1.15,2013-09-13 13:10:00,
2013-09-13 07:20:00,54.1,42.6,29.65,WSW,237,0.0,1.0,65,0.00,,,0.00,19,Wunderground v.1.15,2013-09-13 13:20:00,
2013-09-13 07:25:00,54.0,42.9,29.66,WSW,237,0.0,1.0,66,0.00,,,0.00,19,Wunderground v.1.15,2013-09-13 13:25:00,
2013-09-13 07:30:00,54.0,42.9,29.66,WSW,237,0.0,0.0,66,0.00,,,0.00,18,Wunderground v.1.15,2013-09-13 13:30:00,
2013-09-13 07:35:00,54.0,42.9,29.66,WSW,237,0.0,0.0,66,0.00,,,0.00,18,Wunderground v.1.15,2013-09-13 13:35:00,
2013-09-13 07:40:00,53.8,42.7,29.66,WSW,237,0.0,0.0,66,0.00,,,0.00,19,Wunderground v.1.15,2013-09-13 13:40:00,
2013-09-13 07:45:00,53.6,42.5,29.66,WSW,237,0.0,0.0,66,0.00,,,0.00,23,Wunderground v.1.15,2013-09-13 13:45:00,
2013-09-13 07:55:00,53.3,42.6,29.66,WSW,237,0.0,1.0,67,0.00,,,0.00,32,Wunderground v.1.15,2013-09-13 13:55:00,
2013-09-13 08:00:00,53.1,42.8,29.66,WSW,237,0.0,4.0,68,0.00,,,0.00,33,Wunderground v.1.15,2013-09-13 14:00:00,
2013-09-13 08:05:00,53.0,42.7,29.66,WSW,237,1.0,4.0,68,0.00,,,0.00,35,Wunderground v.1.15,2013-09-13 14:05:00,
2013-09-13 08:10:00,52.9,42.6,29.66,WSW,237,1.0,1.0,68,0.00,,,0.00,42,Wunderground v.1.15,2013-09-13 14:10:00,
2013-09-13 08:15:00,52.9,42.6,29.66,WSW,237,0.0,1.0,68,0.00,,,0.00,58,Wunderground v.1.15,2013-09-13 14:15:00,
2013-09-13 08:20:00,53.0,43.1,29.66,WSW,237,0.0,0.0,69,0.00,,,0.00,67,Wunderground v.1.15,2013-09-13 14:20:00,
2013-09-13 08:25:00,53.4,43.1,29.66,WSW,237,0.0,1.0,68,0.00,,,0.00,70,Wunderground v.1.15,2013-09-13 14:25:00,
2013-09-13 08:30:00,53.6,43.3,29.66,WSW,237,1.0,2.0,68,0.00,,,0.00,74,Wunderground v.1.15,2013-09-13 14:30:00,
2013-09-13 08:35:00,53.8,43.5,29.66,WSW,237,1.0,2.0,68,0.00,,,0.00,79,Wunderground v.1.15,2013-09-13 14:35:00,
2013-09-13 08:40:00,54.1,43.8,29.66,WSW,237,1.0,1.0,68,0.00,,,0.00,98,Wunderground v.1.15,2013-09-13 14:40:00,
2013-09-13 08:50:00,54.9,43.7,29.66,WSW,237,0.0,2.0,66,0.00,,,0.00,207,Wunderground v.1.15,2013-09-13 14:50:00,
2013-09-13 08:55:00,55.1,43.5,29.65,WSW,237,1.0,2.0,65,0.00,,,0.00,151,Wunderground v.1.15,2013-09-13 14:55:00,
2013-09-13 09:05:00,56.1,44.1,29.65,WSW,237,0.0,1.0,64,0.00,,,0.00,253,Wunderground v.1.15,2013-09-13 15:05:00,
2013-09-13 09:10:00,56.5,44.0,29.65,WSW,237,0.0,0.0,63,0.00,,,0.00,267,Wunderground v.1.15,2013-09-13 15:10:00,
2013-09-13 09:20:00,58.3,45.3,29.65,WSW,237,1.0,1.0,62,0.00,,,0.00,353,Wunderground v.1.15,2013-09-13 15:20:00,
2013-09-13 09:30:00,59.7,45.3,29.64,WSW,237,1.0,1.0,59,0.00,,,0.00,425,Wunderground v.1.15,2013-09-13 15:30:00,
2013-09-13 09:35:00,60.4,46.0,29.64,WSW,237,1.0,1.0,59,0.00,,,0.00,461,Wunderground v.1.15,2013-09-13 15:35:00,
2013-09-13 09:40:00,61.3,45.9,29.64,WSW,237,1.0,1.0,57,0.00,,,0.00,478,Wunderground v.1.15,2013-09-13 15:40:00,
2013-09-13 09:45:00,62.5,46.6,29.64,SSW,199,2.0,3.0,56,0.00,,,0.00,441,Wunderground v.1.15,2013-09-13 15:45:00,
2013-09-13 09:55:00,63.4,46.5,29.64,SSW,199,2.0,2.0,54,0.00,,,0.00,450,Wunderground v.1.15,2013-09-13 15:55:00,
2013-09-13 10:05:00,64.7,46.7,29.64,SSW,198,2.0,4.0,52,0.00,,,0.00,469,Wunderground v.1.15,2013-09-13 16:05:00,
2013-09-13 10:15:00,65.8,47.2,29.63,SSW,192,2.0,3.0,51,0.00,,,0.00,483,Wunderground v.1.15,2013-09-13 16:15:00,
2013-09-13 10:20:00,66.1,47.4,29.63,SSW,192,1.0,1.0,51,0.00,,,0.00,587,Wunderground v.1.15,2013-09-13 16:20:00,
2013-09-13 10:25:00,66.7,47.5,29.63,South,191,1.0,3.0,50,0.00,,,0.00,635,Wunderground v.1.15,2013-09-13 16:25:00,
2013-09-13 10:35:00,68.0,47.6,29.62,South,185,2.0,2.0,48,0.00,,,0.00,619,Wunderground v.1.15,2013-09-13 16:35:00,
2013-09-13 10:40:00,68.6,48.1,29.62,South,185,1.0,1.0,48,0.00,,,0.00,596,Wunderground v.1.15,2013-09-13 16:40:00,
2013-09-13 10:45:00,69.2,48.7,29.61,South,185,1.0,4.0,48,0.00,,,0.00,622,Wunderground v.1.15,2013-09-13 16:45:00,
2013-09-13 10:50:00,70.2,48.4,29.61,ENE,63,2.0,3.0,46,0.00,,,0.00,659,Wunderground v.1.15,2013-09-13 16:50:00,
2013-09-13 10:55:00,71.0,48.6,29.60,East,83,3.0,5.0,45,0.00,,,0.00,691,Wunderground v.1.15,2013-09-13 16:55:00,
2013-09-13 11:00:00,71.5,48.4,29.60,ENE,66,2.0,2.0,44,0.00,,,0.00,547,Wunderground v.1.15,2013-09-13 17:00:00,
2013-09-13 11:05:00,71.6,48.5,29.59,NE,49,2.0,4.0,44,0.00,,,0.00,636,Wunderground v.1.15,2013-09-13 17:05:00,
2013-09-13 11:10:00,72.1,48.4,29.59,ESE,112,3.0,4.0,43,0.00,,,0.00,454,Wunderground v.1.15,2013-09-13 17:10:00,
2013-09-13 11:20:00,73.5,49.6,29.59,ENE,75,3.0,3.0,43,0.00,,,0.00,436,Wunderground v.1.15,2013-09-13 17:20:00,
2013-09-13 11:25:00,73.4,49.5,29.59,ESE,120,2.0,3.0,43,0.00,,,0.00,425,Wunderground v.1.15,2013-09-13 17:25:00,
2013-09-13 11:30:00,73.3,48.8,29.58,NE,41,1.0,4.0,42,0.00,,,0.00,322,Wunderground v.1.15,2013-09-13 17:30:00,
2013-09-13 11:40:00,72.9,48.5,29.58,North,360,1.0,1.0,42,0.00,,,0.00,357,Wunderground v.1.15,2013-09-13 17:40:00,
2013-09-13 11:50:00,72.6,48.8,29.58,NNE,30,1.0,1.0,43,0.00,,,0.00,255,Wunderground v.1.15,2013-09-13 17:50:00,
2013-09-13 11:55:00,72.4,49.3,29.57,NNW,347,1.0,1.0,44,0.00,,,0.00,236,Wunderground v.1.15,2013-09-13 17:55:00,
2013-09-13 12:00:00,72.1,48.4,29.57,NW,324,1.0,1.0,43,0.00,,,0.00,248,Wunderground v.1.15,2013-09-13 18:00:00,
2013-09-13 12:05:00,71.9,48.8,29.57,NNE,26,1.0,1.0,44,0.00,,,0.00,278,Wunderground v.1.15,2013-09-13 18:05:00,
2013-09-13 12:10:00,71.8,49.3,29.57,WNW,297,1.0,2.0,45,0.00,,,0.00,323,Wunderground v.1.15,2013-09-13 18:10:00,
2013-09-13 12:15:00,71.8,49.3,29.57,NE,39,2.0,2.0,45,0.00,,,0.00,366,Wunderground v.1.15,2013-09-13 18:15:00,
2013-09-13 12:20:00,71.6,49.7,29.57,WNW,298,2.0,2.0,46,0.00,,,0.00,366,Wunderground v.1.15,2013-09-13 18:20:00,
2013-09-13 12:25:00,71.6,50.3,29.56,ENE,60,2.0,3.0,47,0.00,,,0.00,323,Wunderground v.1.15,2013-09-13 18:25:00,
2013-09-13 12:30:00,71.6,50.3,29.56,NNW,341,2.0,3.0,47,0.00,,,0.00,327,Wunderground v.1.15,2013-09-13 18:30:00,
2013-09-13 12:40:00,71.5,50.2,29.56,NNE,25,2.0,2.0,47,0.00,,,0.00,325,Wunderground v.1.15,2013-09-13 18:40:00,
2013-09-13 12:45:00,71.6,50.3,29.56,NE,54,1.0,2.0,47,0.00,,,0.00,294,Wunderground v.1.15,2013-09-13 18:45:00,
2013-09-13 12:50:00,71.7,49.8,29.56,NW,324,1.0,1.0,46,0.00,,,0.00,285,Wunderground v.1.15,2013-09-13 18:50:00,
2013-09-13 12:55:00,71.9,50.6,29.56,ENE,58,1.0,1.0,47,0.00,,,0.00,299,Wunderground v.1.15,2013-09-13 18:55:00,
2013-09-13 13:00:00,72.0,50.7,29.56,East,89,1.0,1.0,47,0.00,,,0.00,316,Wunderground v.1.15,2013-09-13 19:00:00,
2013-09-13 13:05:00,72.0,50.1,29.56,NW,312,2.0,2.0,46,0.00,,,0.00,302,Wunderground v.1.15,2013-09-13 19:05:00,
2013-09-13 13:10:00,72.1,50.2,29.56,North,354,1.0,2.0,46,0.00,,,0.00,299,Wunderground v.1.15,2013-09-13 19:10:00,
2013-09-13 13:15:00,72.1,50.2,29.56,North,360,1.0,2.0,46,0.00,,,0.00,274,Wunderground v.1.15,2013-09-13 19:15:00,
2013-09-13 13:20:00,72.1,49.6,29.56,NW,313,1.0,4.0,45,0.00,,,0.00,229,Wunderground v.1.15,2013-09-13 19:20:00,
2013-09-13 13:25:00,72.0,49.5,29.55,NW,314,2.0,4.0,45,0.00,,,0.00,204,Wunderground v.1.15,2013-09-13 19:25:00,
2013-09-13 13:30:00,71.9,49.4,29.55,NW,324,2.0,2.0,45,0.00,,,0.00,192,Wunderground v.1.15,2013-09-13 19:30:00,
2013-09-13 13:35:00,71.6,49.1,29.55,WNW,301,1.0,2.0,45,0.00,,,0.00,193,Wunderground v.1.15,2013-09-13 19:35:00,
2013-09-13 13:45:00,71.3,49.4,29.55,NW,325,1.0,1.0,46,0.00,,,0.00,230,Wunderground v.1.15,2013-09-13 19:45:00,
2013-09-13 13:50:00,71.3,50.0,29.55,NW,322,1.0,1.0,47,0.00,,,0.00,225,Wunderground v.1.15,2013-09-13 19:50:00,
2013-09-13 13:55:00,71.3,49.4,29.54,NNW,328,1.0,1.0,46,0.00,,,0.00,216,Wunderground v.1.15,2013-09-13 19:55:00,
2013-09-13 14:00:00,71.4,49.5,29.54,WNW,292,0.0,0.0,46,0.00,,,0.00,209,Wunderground v.1.15,2013-09-13 20:00:00,
2013-09-13 14:10:00,71.6,49.7,29.54,North,351,0.0,0.0,46,0.00,,,0.00,223,Wunderground v.1.15,2013-09-13 20:10:00,
2013-09-13 14:20:00,71.9,48.8,29.54,WNW,295,0.0,2.0,44,0.00,,,0.00,229,Wunderground v.1.15,2013-09-13 20:20:00,
2013-09-13 14:25:00,71.9,48.2,29.54,NW,313,1.0,2.0,43,0.00,,,0.00,223,Wunderground v.1.15,2013-09-13 20:25:00,
2013-09-13 14:30:00,72.0,47.6,29.54,North,5,1.0,1.0,42,0.00,,,0.00,216,Wunderground v.1.15,2013-09-13 20:30:00,
2013-09-13 14:35:00,72.1,47.7,29.54,North,355,1.0,1.0,42,0.00,,,0.00,216,Wunderground v.1.15,2013-09-13 20:35:00,
2013-09-13 14:45:00,72.3,47.3,29.54,NE,42,0.0,1.0,41,0.00,,,0.00,200,Wunderground v.1.15,2013-09-13 20:45:00,
2013-09-13 14:50:00,72.4,48.0,29.54,NE,39,0.0,0.0,42,0.00,,,0.00,200,Wunderground v.1.15,2013-09-13 20:50:00,
2013-09-13 14:55:00,72.4,47.4,29.54,NE,44,0.0,0.0,41,0.00,,,0.00,197,Wunderground v.1.15,2013-09-13 20:55:00,
2013-09-13 15:05:00,72.4,49.3,29.54,ESE,104,1.0,1.0,44,0.00,,,0.00,193,Wunderground v.1.15,2013-09-13 21:05:00,
2013-09-13 15:15:00,72.3,49.2,29.53,ESE,106,2.0,3.0,44,0.00,,,0.00,200,Wunderground v.1.15,2013-09-13 21:15:00,
2013-09-13 15:20:00,72.3,48.5,29.53,ESE,106,1.0,1.0,43,0.00,,,0.00,209,Wunderground v.1.15,2013-09-13 21:20:00,
2013-09-13 15:25:00,72.3,48.5,29.53,ESE,106,1.0,1.0,43,0.00,,,0.00,232,Wunderground v.1.15,2013-09-13 21:25:00,
2013-09-13 15:30:00,72.3,49.2,29.53,ESE,106,1.0,2.0,44,0.00,,,0.00,229,Wunderground v.1.15,2013-09-13 21:30:00,
2013-09-13 15:35:00,72.4,48.6,29.53,ESE,106,1.0,2.0,43,0.00,,,0.00,213,Wunderground v.1.15,2013-09-13 21:35:00,
2013-09-13 15:45:00,72.4,48.6,29.53,ESE,106,1.0,2.0,43,0.00,,,0.00,192,Wunderground v.1.15,2013-09-13 21:45:00,
2013-09-13 15:50:00,72.5,48.7,29.53,ESE,106,1.0,1.0,43,0.00,,,0.00,192,Wunderground v.1.15,2013-09-13 21:50:00,
2013-09-13 15:55:00,72.6,48.8,29.53,ESE,106,1.0,1.0,43,0.00,,,0.00,193,Wunderground v.1.15,2013-09-13 21:55:00,
2013-09-13 16:00:00,72.6,49.4,29.53,East,101,0.0,1.0,44,0.00,,,0.00,195,Wunderground v.1.15,2013-09-13 22:00:00,
2013-09-13 16:05:00,72.7,49.5,29.53,East,101,0.0,1.0,44,0.00,,,0.00,204,Wunderground v.1.15,2013-09-13 22:05:00,
2013-09-13 16:15:00,72.7,49.5,29.53,NE,55,1.0,2.0,44,0.00,,,0.00,190,Wunderground v.1.15,2013-09-13 22:15:00,
2013-09-13 16:20:00,72.8,49.6,29.53,NE,55,1.0,1.0,44,0.00,,,0.00,179,Wunderground v.1.15,2013-09-13 22:20:00,
2013-09-13 16:30:00,72.7,49.5,29.52,NE,55,0.0,0.0,44,0.00,,,0.00,165,Wunderground v.1.15,2013-09-13 22:30:00,
2013-09-13 16:35:00,72.7,48.9,29.52,NE,55,0.0,0.0,43,0.00,,,0.00,155,Wunderground v.1.15,2013-09-13 22:35:00,
2013-09-13 16:40:00,72.6,48.8,29.52,NE,55,0.0,0.0,43,0.00,,,0.00,151,Wunderground v.1.15,2013-09-13 22:40:00,
2013-09-13 16:45:00,72.4,48.6,29.52,NE,55,0.0,0.0,43,0.00,,,0.00,153,Wunderground v.1.15,2013-09-13 22:45:00,
2013-09-13 16:50:00,72.4,49.3,29.52,NE,55,0.0,0.0,44,0.00,,,0.00,160,Wunderground v.1.15,2013-09-13 22:50:00,
2013-09-13 16:55:00,72.5,49.3,29.52,NE,55,0.0,2.0,44,0.00,,,0.00,165,Wunderground v.1.15,2013-09-13 22:55:00,
2013-09-13 17:00:00,72.6,49.4,29.52,NE,54,0.0,0.0,44,0.00,,,0.00,156,Wunderground v.1.15,2013-09-13 23:00:00,
2013-09-13 17:05:00,72.6,48.8,29.52,NE,43,0.0,0.0,43,0.00,,,0.00,137,Wunderground v.1.15,2013-09-13 23:05:00,
2013-09-13 17:15:00,72.3,48.5,29.51,North,350,1.0,1.0,43,0.00,,,0.00,120,Wunderground v.1.15,2013-09-13 23:15:00,
2013-09-13 17:20:00,71.9,48.8,29.51,North,349,1.0,1.0,44,0.00,,,0.00,109,Wunderground v.1.15,2013-09-13 23:20:00,
2013-09-13 17:25:00,71.8,48.7,29.51,North,350,0.0,1.0,44,0.00,,,0.00,104,Wunderground v.1.15,2013-09-13 23:25:00,
2013-09-13 17:30:00,71.7,48.6,29.51,NNW,339,0.0,0.0,44,0.00,,,0.00,105,Wunderground v.1.15,2013-09-13 23:30:00,
2013-09-13 17:35:00,71.5,49.0,29.51,North,2,1.0,1.0,45,0.00,,,0.00,97,Wunderground v.1.15,2013-09-13 23:35:00,
2013-09-13 17:45:00,71.3,48.3,29.51,NW,310,2.0,4.0,44,0.00,,,0.00,84,Wunderground v.1.15,2013-09-13 23:45:00,
2013-09-13 17:50:00,71.3,48.3,29.51,NW,313,3.0,3.0,44,0.00,,,0.00,76,Wunderground v.1.15,2013-09-13 23:50:00,
2013-09-13 18:00:00,71.3,48.3,29.51,NW,312,1.0,1.0,44,0.00,,,0.00,54,Wunderground v.1.15,2013-09-14 00:00:00,
2013-09-13 18:10:00,71.0,48.0,29.51,WNW,296,2.0,2.0,44,0.00,,,0.00,46,Wunderground v.1.15,2013-09-14 00:10:00,
2013-09-13 18:15:00,70.7,47.7,29.51,West,274,2.0,3.0,44,0.00,,,0.00,49,Wunderground v.1.15,2013-09-14 00:15:00,
2013-09-13 18:25:00,70.1,47.2,29.51,WNW,285,7.0,8.0,44,0.00,,,0.00,44,Wunderground v.1.15,2013-09-14 00:25:00,
2013-09-13 18:30:00,69.9,47.6,29.51,NW,318,8.0,8.0,45,0.00,,,0.00,40,Wunderground v.1.15,2013-09-14 00:30:00,
2013-09-13 18:35:00,69.8,47.5,29.50,West,275,9.0,9.0,45,0.00,,,0.00,37,Wunderground v.1.15,2013-09-14 00:35:00,
2013-09-13 18:45:00,69.7,47.4,29.50,WNW,290,8.0,8.0,45,0.00,,,0.00,37,Wunderground v.1.15,2013-09-14 00:45:00,
2013-09-13 18:50:00,69.7,47.4,29.50,WNW,295,9.0,9.0,45,0.00,,,0.00,33,Wunderground v.1.15,2013-09-14 00:50:00,
2013-09-13 18:55:00,69.6,47.3,29.50,WNW,285,9.0,9.0,45,0.00,,,0.00,26,Wunderground v.1.15,2013-09-14 00:55:00,
2013-09-13 19:05:00,69.5,46.6,29.50,WNW,282,8.0,8.0,44,0.00,,,0.00,16,Wunderground v.1.15,2013-09-14 01:05:00,
2013-09-13 19:10:00,69.5,46.6,29.50,NW,308,8.0,8.0,44,0.00,,,0.00,14,Wunderground v.1.15,2013-09-14 01:10:00,
2013-09-13 19:15:00,69.4,46.5,29.50,WNW,300,7.0,8.0,44,0.00,,,0.00,14,Wunderground v.1.15,2013-09-14 01:15:00,
2013-09-13 19:25:00,69.5,46.6,29.50,West,266,5.0,7.0,44,0.00,,,0.00,12,Wunderground v.1.15,2013-09-14 01:25:00,
2013-09-13 19:30:00,69.4,46.5,29.50,West,270,2.0,2.0,44,0.00,,,0.00,0,Wunderground v.1.15,2013-09-14 01:30:00,
2013-09-13 19:35:00,69.4,46.5,29.50,West,270,1.0,2.0,44,0.00,,,0.00,0,Wunderground v.1.15,2013-09-14 01:35:00,
2013-09-13 19:45:00,69.1,46.9,29.50,West,270,1.0,1.0,45,0.00,,,0.00,0,Wunderground v.1.15,2013-09-14 01:45:00,
2013-09-13 19:50:00,68.9,46.7,29.50,West,270,0.0,0.0,45,0.00,,,0.00,0,Wunderground v.1.15,2013-09-14 01:50:00,
2013-09-13 19:55:00,68.8,47.2,29.50,West,278,1.0,2.0,46,0.00,,,0.00,0,Wunderground v.1.15,2013-09-14 01:55:00,
2013-09-13 20:00:00,68.5,46.9,29.50,WNW,283,1.0,1.0,46,0.00,,,0.00,0,Wunderground v.1.15,2013-09-14 02:00:00,
2013-09-13 20:05:00,68.3,46.7,29.50,NNW,340,1.0,1.0,46,0.00,,,0.00,0,Wunderground v.1.15,2013-09-14 02:05:00,
2013-09-13 20:15:00,67.8,47.4,29.51,NNW,340,0.0,1.0,48,0.00,,,0.00,0,Wunderground v.1.15,2013-09-14 02:15:00,
2013-09-13 20:20:00,67.6,47.2,29.51,NNW,340,0.0,0.0,48,0.00,,,0.00,0,Wunderground v.1.15,2013-09-14 02:20:00,
2013-09-13 20:25:00,67.3,47.5,29.51,NNW,340,0.0,0.0,49,0.00,,,0.00,0,Wunderground v.1.15,2013-09-14 02:25:00,
2013-09-13 20:30:00,67.2,48.5,29.51,NNW,338,0.0,2.0,51,0.00,,,0.00,0,Wunderground v.1.15,2013-09-14 02:30:00,
2013-09-13 20:35:00,66.8,50.1,29.51,NNW,337,0.0,2.0,55,0.00,,,0.00,0,Wunderground v.1.15,2013-09-14 02:35:00,
2013-09-13 20:45:00,66.1,49.0,29.52,NNW,337,0.0,1.0,54,0.00,,,0.00,0,Wunderground v.1.15,2013-09-14 02:45:00,
2013-09-13 20:50:00,65.8,49.2,29.52,NW,318,1.0,1.0,55,0.00,,,0.00,0,Wunderground v.1.15,2013-09-14 02:50:00,
2013-09-13 20:55:00,65.4,47.8,29.53,NW,317,1.0,4.0,53,0.00,,,0.00,0,Wunderground v.1.15,2013-09-14 02:55:00,
2013-09-13 21:05:00,65.3,47.7,29.53,NNW,328,3.0,3.0,53,0.00,,,0.00,0,Wunderground v.1.15,2013-09-14 03:05:00,
2013-09-13 21:10:00,65.2,48.1,29.53,NNW,348,3.0,3.0,54,0.00,,,0.00,0,Wunderground v.1.15,2013-09-14 03:10:00,
2013-09-13 21:15:00,65.0,47.9,29.53,NNE,25,2.0,3.0,54,0.00,,,0.00,0,Wunderground v.1.15,2013-09-14 03:15:00,
2013-09-13 21:20:00,64.9,47.9,29.54,WNW,300,2.0,4.0,54,0.00,,,0.00,0,Wunderground v.1.15,2013-09-14 03:20:00,
2013-09-13 21:25:00,64.8,47.8,29.54,WSW,247,3.0,4.0,54,0.00,,,0.00,0,Wunderground v.1.15,2013-09-14 03:25:00,
2013-09-13 21:30:00,64.8,47.3,29.55,ENE,74,3.0,5.0,53,0.00,,,0.00,0,Wunderground v.1.15,2013-09-14 03:30:00,
2013-09-13 21:35:00,64.9,47.9,29.55,ESE,114,4.0,5.0,54,0.00,,,0.00,0,Wunderground v.1.15,2013-09-14 03:35:00,
2013-09-13 21:45:00,64.0,50.3,29.57,NW,314,2.0,5.0,61,0.00,,,0.00,0,Wunderground v.1.15,2013-09-14 03:45:00,
2013-09-13 21:50:00,63.2,50.4,29.57,SW,229,2.0,3.0,63,0.00,,,0.00,0,Wunderground v.1.15,2013-09-14 03:50:00,
2013-09-13 21:55:00,62.2,49.9,29.58,WSW,247,2.0,3.0,64,0.00,,,0.00,0,Wunderground v.1.15,2013-09-14 03:55:00,
2013-09-13 22:05:00,61.4,50.3,29.59,West,276,3.0,5.0,67,0.00,,,0.00,0,Wunderground v.1.15,2013-09-14 04:05:00,
2013-09-13 22:10:00,61.0,50.0,29.59,West,281,5.0,11.0,67,0.00,,,0.00,0,Wunderground v.1.15,2013-09-14 04:10:00,
2013-09-13 22:20:00,60.4,50.6,29.59,West,268,13.0,13.0,70,0.00,,,0.01,0,Wunderground v.1.15,2013-09-14 04:20:00,
2013-09-13 22:25:00,59.9,50.8,29.59,NW,304,11.0,13.0,72,0.07,,,0.01,0,Wunderground v.1.15,2013-09-14 04:25:00,
2013-09-13 22:30:00,59.3,51.0,29.59,WNW,285,7.0,8.0,74,0.07,,,0.02,0,Wunderground v.1.15,2013-09-14 04:30:00,
2013-09-13 22:40:00,58.8,50.9,29.60,SSW,213,5.0,5.0,75,0.06,,,0.03,0,Wunderground v.1.15,2013-09-14 04:40:00,
2013-09-13 22:45:00,58.6,51.4,29.60,WNW,287,2.0,5.0,77,0.06,,,0.03,0,Wunderground v.1.15,2013-09-14 04:45:00,
2013-09-13 22:55:00,58.1,50.9,29.61,West,264,3.0,3.0,77,0.00,,,0.03,0,Wunderground v.1.15,2013-09-14 04:55:00,
2013-09-13 23:00:00,58.0,51.2,29.60,West,264,2.0,2.0,78,0.00,,,0.03,0,Wunderground v.1.15,2013-09-14 05:00:00,
2013-09-13 23:10:00,57.7,51.9,29.61,West,273,4.0,4.0,81,0.00,,,0.04,0,Wunderground v.1.15,2013-09-14 05:10:00,
2013-09-13 23:15:00,57.4,51.6,29.60,West,271,4.0,8.0,81,0.00,,,0.04,0,Wunderground v.1.15,2013-09-14 05:15:00,
2013-09-13 23:20:00,57.2,51.4,29.60,West,266,5.0,5.0,81,0.00,,,0.04,0,Wunderground v.1.15,2013-09-14 05:20:00,
2013-09-13 23:25:00,57.1,51.3,29.60,West,274,5.0,5.0,81,0.05,,,0.05,0,Wunderground v.1.15,2013-09-14 05:25:00,
2013-09-13 23:30:00,57.0,51.6,29.60,West,273,2.0,2.0,82,0.05,,,0.05,0,Wunderground v.1.15,2013-09-14 05:30:00,
2013-09-13 23:35:00,56.8,51.4,29.60,WSW,249,2.0,2.0,82,0.04,,,0.05,0,Wunderground v.1.15,2013-09-14 05:35:00,
2013-09-13 23:45:00,56.8,51.4,29.59,West,273,1.0,2.0,82,0.00,,,0.05,0,Wunderground v.1.15,2013-09-14 05:45:00,
2013-09-13 23:50:00,56.7,51.3,29.59,SW,231,2.0,2.0,82,0.00,,,0.05,0,Wunderground v.1.15,2013-09-14 05:50:00,
2013-09-13 23:55:00,56.7,51.3,29.59,SW,236,2.0,2.0,82,0.00,,,0.05,0,Wunderground v.1.15,2013-09-14 05:55:00,